DELTA 1 DEB, 13539

Orbit data source: Space-Track

DELTA 1 DEB, 13539 is space debris in LEO originally from a launch on Thu, 29 Jul 1976 UTC launched from the Air Force Western Test Range (AFWTR). Debris objects in space refer to the collection of defunct objects orbiting the Earth. Examples of debris include non-operational satellites, rocket bodies, and fragments generated from explosions, collisions, or faulty payload assembly.

Loading next visibility...
Identifier
13539, 1976-077EM
Orbit
LEO
Country
Flag of USUS
Related business
Manufacturer
Unknown
Mission
Spacecraft
Bus & Motor
Unknown
Mass
Unknown
Launch date (UTC)
1976-07-29 (50 years ago)
Launch vehicle
Unknown
Launch site
Air Force Western Test Range (AFWTR)
Object type
Payload
Rocket body
Debris
Shape & HBR
Unknown shape, 1.1 m
Radar Cross Section
Small (<0.1 m²)

Expand to show TLE details & history
Last TLE update: 9 hours ago

TLE from 9 hours ago
0 DELTA 1 DEB
1 13539U 76077EM  26106.17307270  .00000171  00000-0  31015-2 0  9991
2 13539 101.8770 187.7194 0414430 163.1746 226.2913 11.65458271946530
Epoch: 2026-04-16T04:09Z
TLE epoch observation values (Epoch: 2026-04-16T04:09:13.481Z)
Latitude
25.58082°
Longitude
-84.66304°
Altitude
2,084.45 km
Speed
6.764 km/s
True Right ascension
12h 07m 52s
True Declination
25° 28' 05"
Sunlit
Object was in full shadow at epoch
Visualization orbit readout
Latitude
Unknown
Longitude
Unknown
Altitude
Unknown
Speed
Unknown
Apparent Right ascension
Unknown
Apparent Declination
Unknown
Sunlit
N/A
Visualization observer readout
Local Sidereal Time
19:52:49
Azimuth
Unknown
Elevation
Unknown
Doppler factor
Unknown
Orbital elements
Apogee altitude
2,177.438 km
Perigee altitude
1,496.52 km
Semi-major axis
8,215.116 km
Eccentricity
0.04144
Inclination
101.877°
RAAN
187.7194°
Arg. of periapsis
163.1746°
True anomaly
222.97904°
Mean anomaly
226.2913°
Eccentric anomaly
224.62334°
Mean motion
2.91489 °/min
Orbital period
123.5 mins
BSTAR
0.0031015
Loading maneuver chart data...
Computing Atmospheric mass density...
Loading historical data...
Loading historical data...
Loading historical data...
Loading historical data...
Loading historical data...
Loading historical data...
Loading historical data...

Documentation

Showing up to 5 results
|